owner,sensor,date,latitude,longitude,vertical_datum,direction_of_sea_water_velocity,sea_water_speed,upward_sea_water_velocity,qcFlag 
TABS,ioos:station:wmo:42045:1,2010-11-01T00:00:00Z,26.2168,-96.4998,2.0,20.13836049,28.40664183,-99999.0,'11111222,11111222,99999999' 
TABS,ioos:station:wmo:42045:1,2010-11-01T00:30:00Z,26.2168,-96.4998,2.0,15.12463966,32.69242267,-99999.0,'11111222,11111222,99999999' 
TABS,ioos:station:wmo:42045:1,2010-11-01T01:00:00Z,26.2168,-96.4998,2.0,17.80527405,32.50701617,-99999.0,'11111222,11111222,99999999' 
TABS,ioos:station:wmo:42045:1,2010-11-01T01:30:00Z,26.2168,-96.4998,2.0,16.70135314,28.32483892,-99999.0,'11111222,11111222,99999999' 
TABS,ioos:station:wmo:42045:1,2010-11-01T02:00:00Z,26.2168,-96.4998,2.0,10.38442986,26.46344271,-99999.0,'11111222,11111222,99999999' 
TABS,ioos:station:wmo:42045:1,2010-11-01T02:30:00Z,26.2168,-96.4998,2.0,9.286416422,30.48958019,-99999.0,'11111222,11111222,99999999' 
TABS,ioos:station:wmo:42045:1,2010-11-01T03:00:00Z,26.2168,-96.4998,2.0,3.898418733,28.5360211,-99999.0,'11111222,11111222,99999999' 
TABS,ioos:station:wmo:42045:1,2010-11-01T03:30:00Z,26.2168,-96.4998,2.0,2.411234567,29.4760937,-99999.0,'11111222,11111222,99999999' 
TABS,ioos:station:wmo:42045:1,2010-11-01T04:00:00Z,26.2168,-96.4998,2.0,359.269992,29.03235781,-99999.0,'11111222,11144222,99999999' 
TABS,ioos:station:wmo:42045:1,2010-11-01T04:30:00Z,26.2168,-96.4998,2.0,354.6697267,27.44870489,-99999.0,'11111222,11111222,99999999' 
TABS,ioos:station:wmo:42045:1,2010-11-01T05:00:00Z,26.2168,-96.4998,2.0,352.5892816,25.35177509,-99999.0,'11111222,11111222,99999999' 
TABS,ioos:station:wmo:42045:1,2010-11-01T05:30:00Z,26.2168,-96.4998,2.0,2.618187895,28.67993375,-99999.0,'11111222,11111222,99999999' 
TABS,ioos:station:wmo:42045:1,2010-11-01T06:00:00Z,26.2168,-96.4998,2.0,4.906048474,33.79380121,-99999.0,'11111222,11111222,99999999' 
TABS,ioos:station:wmo:42045:1,2010-11-01T06:30:00Z,26.2168,-96.4998,2.0,6.604234877,37.64981939,-99999.0,'11111222,11111222,99999999' 
TABS,ioos:station:wmo:42045:1,2010-11-01T07:00:00Z,26.2168,-96.4998,2.0,6.633076179,36.10164124,-99999.0,'11111222,11111222,99999999' 
TABS,ioos:station:wmo:42045:1,2010-11-01T07:30:00Z,26.2168,-96.4998,2.0,5.566192853,35.87916526,-99999.0,'11111222,11111222,99999999' 
TABS,ioos:station:wmo:42045:1,2010-11-01T08:00:00Z,26.2168,-96.4998,2.0,359.0793174,41.06530409,-99999.0,'11111222,11144222,99999999' 
TABS,ioos:station:wmo:42045:1,2010-11-01T08:30:00Z,26.2168,-96.4998,2.0,3.371940064,38.25622302,-99999.0,'11111222,11111222,99999999' 
TABS,ioos:station:wmo:42045:1,2010-11-01T09:00:00Z,26.2168,-96.4998,2.0,357.8157214,40.1391704,-99999.0,'11111222,11111222,99999999' 
TABS,ioos:station:wmo:42045:1,2010-11-01T09:30:00Z,26.2168,-96.4998,2.0,354.3470667,35.73379353,-99999.0,'11111222,11111222,99999999' 
TABS,ioos:station:wmo:42045:1,2010-11-01T10:00:00Z,26.2168,-96.4998,2.0,349.3705299,35.02096515,-99999.0,'11111222,11111222,99999999' 
TABS,ioos:station:wmo:42045:1,2010-11-01T10:30:00Z,26.2168,-96.4998,2.0,356.1608354,36.14111232,-99999.0,'11111222,11111222,99999999' 
TABS,ioos:station:wmo:42045:1,2010-11-01T11:00:00Z,26.2168,-96.4998,2.0,353.8915364,38.81037232,-99999.0,'11111222,11111222,99999999' 
TABS,ioos:station:wmo:42045:1,2010-11-01T11:30:00Z,26.2168,-96.4998,2.0,346.9716543,30.3410481,-99999.0,'11111222,11111222,99999999' 
TABS,ioos:station:wmo:42045:1,2010-11-01T12:00:00Z,26.2168,-96.4998,2.0,352.0359791,19.05377915,-99999.0,'11111222,11111222,99999999' 
TABS,ioos:station:wmo:42045:1,2010-11-01T12:30:00Z,26.2168,-96.4998,2.0,345.8793317,39.39025387,-99999.0,'11111222,11111222,99999999' 
TABS,ioos:station:wmo:42045:1,2010-11-01T13:00:00Z,26.2168,-96.4998,2.0,350.8833937,40.89663556,-99999.0,'11111222,11111222,99999999' 
TABS,ioos:station:wmo:42045:1,2010-11-01T13:30:00Z,26.2168,-96.4998,2.0,345.3731972,39.04546068,-99999.0,'11111222,11111222,99999999' 
TABS,ioos:station:wmo:42045:1,2010-11-01T14:00:00Z,26.2168,-96.4998,2.0,344.9134179,40.60971559,-99999.0,'11111222,11111222,99999999' 
TABS,ioos:station:wmo:42045:1,2010-11-01T14:30:00Z,26.2168,-96.4998,2.0,337.233384,42.87014112,-99999.0,'11111222,11111222,99999999' 
TABS,ioos:station:wmo:42045:1,2010-11-01T15:00:00Z,26.2168,-96.4998,2.0,339.3375357,48.40362073,-99999.0,'11111222,11111222,99999999' 
TABS,ioos:station:wmo:42045:1,2010-11-01T15:30:00Z,26.2168,-96.4998,2.0,340.6015437,42.30144797,-99999.0,'11111222,11111222,99999999' 
TABS,ioos:station:wmo:42045:1,2010-11-01T16:00:00Z,26.2168,-96.4998,2.0,340.8075036,42.79884695,-99999.0,'11111222,11111222,99999999' 
TABS,ioos:station:wmo:42045:1,2010-11-01T16:30:00Z,26.2168,-96.4998,2.0,336.0231665,39.81578581,-99999.0,'11111222,11111222,99999999' 
TABS,ioos:station:wmo:42045:1,2010-11-01T17:00:00Z,26.2168,-96.4998,2.0,335.9942177,40.06557126,-99999.0,'11111222,11111222,99999999' 
TABS,ioos:station:wmo:42045:1,2010-11-01T17:30:00Z,26.2168,-96.4998,2.0,335.4199199,36.15654851,-99999.0,'11111222,11111222,99999999' 
TABS,ioos:station:wmo:42045:1,2010-11-01T18:00:00Z,26.2168,-96.4998,2.0,334.8613377,28.93026443,-99999.0,'11111222,11111222,99999999' 
TABS,ioos:station:wmo:42045:1,2010-11-01T18:30:00Z,26.2168,-96.4998,2.0,344.3936248,31.59485559,-99999.0,'11111222,11111222,99999999' 
TABS,ioos:station:wmo:42045:1,2010-11-01T19:00:00Z,26.2168,-96.4998,2.0,338.1488222,27.64633249,-99999.0,'11111222,11111222,99999999' 
TABS,ioos:station:wmo:42045:1,2010-11-01T19:30:00Z,26.2168,-96.4998,2.0,342.2949525,23.83918203,-99999.0,'11111222,11111222,99999999' 
TABS,ioos:station:wmo:42045:1,2010-11-01T20:00:00Z,26.2168,-96.4998,2.0,351.7769635,21.74356227,-99999.0,'11111222,11111222,99999999' 
TABS,ioos:station:wmo:42045:1,2010-11-01T20:30:00Z,26.2168,-96.4998,2.0,354.3277963,25.39434977,-99999.0,'11111222,11111222,99999999' 
TABS,ioos:station:wmo:42045:1,2010-11-01T21:00:00Z,26.2168,-96.4998,2.0,359.6311158,20.18041873,-99999.0,'11111222,11144222,99999999' 
TABS,ioos:station:wmo:42045:1,2010-11-01T21:30:00Z,26.2168,-96.4998,2.0,355.8935972,23.3198735,-99999.0,'11111222,11111222,99999999' 
TABS,ioos:station:wmo:42045:1,2010-11-01T22:00:00Z,26.2168,-96.4998,2.0,8.12042715,16.42467656,-99999.0,'11111222,11111222,99999999' 
TABS,ioos:station:wmo:42045:1,2010-11-01T22:30:00Z,26.2168,-96.4998,2.0,16.31402474,11.10720487,-99999.0,'11111222,11111222,99999999' 
TABS,ioos:station:wmo:42045:1,2010-11-01T23:00:00Z,26.2168,-96.4998,2.0,7.796742607,10.68880723,-99999.0,'11111222,11111222,99999999' 
TABS,ioos:station:wmo:42045:1,2010-11-01T23:30:00Z,26.2168,-96.4998,2.0,35.64911272,9.574173594,-99999.0,'11133222,11111222,99999999' 
TABS,ioos:station:wmo:42045:1,2010-11-02T00:00:00Z,26.2168,-96.4998,2.0,38.12482274,11.87284717,-99999.0,'11111222,11111222,99999999' 
TABS,ioos:station:wmo:42045:1,2010-11-02T00:30:00Z,26.2168,-96.4998,2.0,49.15687783,7.706523211,-99999.0,'11133222,11111222,99999999' 
TABS,ioos:station:wmo:42045:1,2010-11-02T01:00:00Z,26.2168,-96.4998,2.0,28.94979684,7.95387327,-99999.0,'11133222,11111222,99999999' 
TABS,ioos:station:wmo:42045:1,2010-11-02T01:30:00Z,26.2168,-96.4998,2.0,15.19615378,9.346812291,-99999.0,'11133222,11111222,99999999' 
TABS,ioos:station:wmo:42045:1,2010-11-02T02:00:00Z,26.2168,-96.4998,2.0,6.971488408,8.321520294,-99999.0,'11133222,11111222,99999999' 
TABS,ioos:station:wmo:42045:1,2010-11-02T02:30:00Z,26.2168,-96.4998,2.0,31.96293567,11.40982033,-99999.0,'11111222,11111222,99999999' 
TABS,ioos:station:wmo:42045:1,2010-11-02T03:00:00Z,26.2168,-96.4998,2.0,15.8425052,9.927064017,-99999.0,'11133222,11111222,99999999' 
TABS,ioos:station:wmo:42045:1,2010-11-02T03:30:00Z,26.2168,-96.4998,2.0,22.60291218,12.87923134,-99999.0,'11111222,11111222,99999999' 
TABS,ioos:station:wmo:42045:1,2010-11-02T04:00:00Z,26.2168,-96.4998,2.0,10.82110241,19.76138153,-99999.0,'11111222,11111222,99999999' 
TABS,ioos:station:wmo:42045:1,2010-11-02T04:30:00Z,26.2168,-96.4998,2.0,43.45705529,12.86693825,-99999.0,'11111222,11111222,99999999' 
TABS,ioos:station:wmo:42045:1,2010-11-02T05:00:00Z,26.2168,-96.4998,2.0,36.10728262,18.47963744,-99999.0,'11111222,11111222,99999999' 
TABS,ioos:station:wmo:42045:1,2010-11-02T05:30:00Z,26.2168,-96.4998,2.0,32.37392893,17.14476013,-99999.0,'11111222,11111222,99999999' 
TABS,ioos:station:wmo:42045:1,2010-11-02T06:00:00Z,26.2168,-96.4998,2.0,31.50598412,19.93931794,-99999.0,'11111222,11111222,99999999' 
TABS,ioos:station:wmo:42045:1,2010-11-02T06:30:00Z,26.2168,-96.4998,2.0,44.82247548,20.52740851,-99999.0,'11111222,11111222,99999999' 
TABS,ioos:station:wmo:42045:1,2010-11-02T07:00:00Z,26.2168,-96.4998,2.0,43.84806288,23.21193658,-99999.0,'11111222,11111222,99999999' 
TABS,ioos:station:wmo:42045:1,2010-11-02T07:30:00Z,26.2168,-96.4998,2.0,34.6730206,24.41594766,-99999.0,'11111222,11111222,99999999' 
TABS,ioos:station:wmo:42045:1,2010-11-02T08:00:00Z,26.2168,-96.4998,2.0,35.12564332,31.99682797,-99999.0,'11111222,11111222,99999999' 
TABS,ioos:station:wmo:42045:1,2010-11-02T08:30:00Z,26.2168,-96.4998,2.0,33.86046808,27.99861604,-99999.0,'11111222,11111222,99999999' 
TABS,ioos:station:wmo:42045:1,2010-11-02T09:00:00Z,26.2168,-96.4998,2.0,42.43183735,26.82629307,-99999.0,'11111222,11111222,99999999' 
TABS,ioos:station:wmo:42045:1,2010-11-02T09:30:00Z,26.2168,-96.4998,2.0,39.27677778,31.62389603,-99999.0,'11111222,11111222,99999999' 
TABS,ioos:station:wmo:42045:1,2010-11-02T10:00:00Z,26.2168,-96.4998,2.0,35.15451919,30.93186383,-99999.0,'11111222,11111222,99999999' 
TABS,ioos:station:wmo:42045:1,2010-11-02T10:30:00Z,26.2168,-96.4998,2.0,33.30439357,30.0682058,-99999.0,'11111222,11111222,99999999' 
TABS,ioos:station:wmo:42045:1,2010-11-02T11:00:00Z,26.2168,-96.4998,2.0,46.12893739,28.71410803,-99999.0,'11111222,11111222,99999999' 
TABS,ioos:station:wmo:42045:1,2010-11-02T11:30:00Z,26.2168,-96.4998,2.0,42.02422454,21.92866845,-99999.0,'11111222,11111222,99999999' 
TABS,ioos:station:wmo:42045:1,2010-11-02T12:00:00Z,26.2168,-96.4998,2.0,23.36146664,16.64447055,-99999.0,'11111222,11111222,99999999' 
TABS,ioos:station:wmo:42045:1,2010-11-02T12:30:00Z,26.2168,-96.4998,2.0,38.5199099,25.56259768,-99999.0,'11111222,11111222,99999999' 
TABS,ioos:station:wmo:42045:1,2010-11-02T13:00:00Z,26.2168,-96.4998,2.0,35.43085413,24.28766148,-99999.0,'11111222,11111222,99999999' 
TABS,ioos:station:wmo:42045:1,2010-11-02T13:30:00Z,26.2168,-96.4998,2.0,40.62028708,29.62944819,-99999.0,'11111222,11111222,99999999' 
TABS,ioos:station:wmo:42045:1,2010-11-02T14:00:00Z,26.2168,-96.4998,2.0,81.42734564,35.152741,-99999.0,'11111222,11111222,99999999' 
TABS,ioos:station:wmo:42045:1,2010-11-02T14:30:00Z,26.2168,-96.4998,2.0,75.72672863,24.62000203,-99999.0,'11111222,11111222,99999999' 
TABS,ioos:station:wmo:42045:1,2010-11-02T15:00:00Z,26.2168,-96.4998,2.0,101.0666483,20.78653651,-99999.0,'11111222,11111222,99999999' 
TABS,ioos:station:wmo:42045:1,2010-11-02T15:30:00Z,26.2168,-96.4998,2.0,117.7836048,21.23850513,-99999.0,'11111222,11111222,99999999' 
TABS,ioos:station:wmo:42045:1,2010-11-02T16:00:00Z,26.2168,-96.4998,2.0,148.0052795,11.2486977,-99999.0,'11111222,11111222,99999999' 
TABS,ioos:station:wmo:42045:1,2010-11-02T16:30:00Z,26.2168,-96.4998,2.0,128.4420634,20.55573886,-99999.0,'11111222,11111222,99999999' 
TABS,ioos:station:wmo:42045:1,2010-11-02T17:00:00Z,26.2168,-96.4998,2.0,145.4846857,17.71896159,-99999.0,'11111222,11111222,99999999' 
TABS,ioos:station:wmo:42045:1,2010-11-02T17:30:00Z,26.2168,-96.4998,2.0,133.6962028,15.85036593,-99999.0,'11111222,11111222,99999999' 
TABS,ioos:station:wmo:42045:1,2010-11-02T18:00:00Z,26.2168,-96.4998,2.0,147.4341969,25.58215198,-99999.0,'11111222,11111222,99999999' 
TABS,ioos:station:wmo:42045:1,2010-11-02T18:30:00Z,26.2168,-96.4998,2.0,145.1270082,17.33252722,-99999.0,'11111222,11111222,99999999' 
TABS,ioos:station:wmo:42045:1,2010-11-02T19:00:00Z,26.2168,-96.4998,2.0,167.2238356,18.85685552,-99999.0,'11111222,11111222,99999999' 
TABS,ioos:station:wmo:42045:1,2010-11-02T19:30:00Z,26.2168,-96.4998,2.0,152.1757582,15.46838065,-99999.0,'11111222,11111222,99999999' 
TABS,ioos:station:wmo:42045:1,2010-11-02T20:00:00Z,26.2168,-96.4998,2.0,184.2191442,17.39715207,-99999.0,'11111222,11111222,99999999' 
TABS,ioos:station:wmo:42045:1,2010-11-02T20:30:00Z,26.2168,-96.4998,2.0,179.1148585,17.48208512,-99999.0,'11111222,11111222,99999999' 
TABS,ioos:station:wmo:42045:1,2010-11-02T21:00:00Z,26.2168,-96.4998,2.0,175.7508152,18.49082205,-99999.0,'11111222,11111222,99999999' 
TABS,ioos:station:wmo:42045:1,2010-11-02T21:30:00Z,26.2168,-96.4998,2.0,193.9296701,16.98964979,-99999.0,'11111222,11111222,99999999' 
TABS,ioos:station:wmo:42045:1,2010-11-02T22:00:00Z,26.2168,-96.4998,2.0,185.6675647,17.31464698,-99999.0,'11111222,11111222,99999999' 
TABS,ioos:station:wmo:42045:1,2010-11-02T22:30:00Z,26.2168,-96.4998,2.0,175.4991643,20.2624801,-99999.0,'11111222,11111222,99999999' 
TABS,ioos:station:wmo:42045:1,2010-11-02T23:00:00Z,26.2168,-96.4998,2.0,182.1317087,13.70948941,-99999.0,'11111222,11111222,99999999' 
TABS,ioos:station:wmo:42045:1,2010-11-02T23:30:00Z,26.2168,-96.4998,2.0,217.0897469,11.97208837,-99999.0,'11111222,11111222,99999999' 
TABS,ioos:station:wmo:42045:1,2010-11-03T00:00:00Z,26.2168,-96.4998,2.0,196.0487568,9.115261927,-99999.0,'11133222,11111222,99999999' 
TABS,ioos:station:wmo:42045:1,2010-11-03T00:30:00Z,26.2168,-96.4998,2.0,238.1317552,13.69415204,-99999.0,'11111222,11111222,99999999' 
TABS,ioos:station:wmo:42045:1,2010-11-03T01:00:00Z,26.2168,-96.4998,2.0,207.1911989,5.317687467,-99999.0,'11133222,11111222,99999999' 
TABS,ioos:station:wmo:42045:1,2010-11-03T01:30:00Z,26.2168,-96.4998,2.0,239.2858688,15.33040443,-99999.0,'11111222,11111222,99999999' 
TABS,ioos:station:wmo:42045:1,2010-11-03T02:00:00Z,26.2168,-96.4998,2.0,281.2038296,12.66127956,-99999.0,'11111222,11111222,99999999' 
TABS,ioos:station:wmo:42045:1,2010-11-03T02:30:00Z,26.2168,-96.4998,2.0,269.7947088,8.390053635,-99999.0,'11133222,11111222,99999999' 
TABS,ioos:station:wmo:42045:1,2010-11-03T03:00:00Z,26.2168,-96.4998,2.0,277.9456452,14.90306009,-99999.0,'11111222,11111222,99999999' 
TABS,ioos:station:wmo:42045:1,2010-11-03T03:30:00Z,26.2168,-96.4998,2.0,279.842636,10.41326078,-99999.0,'11111222,11111222,99999999' 
TABS,ioos:station:wmo:42045:1,2010-11-03T04:00:00Z,26.2168,-96.4998,2.0,280.082871,6.683210306,-99999.0,'11133222,11111222,99999999' 
TABS,ioos:station:wmo:42045:1,2010-11-03T04:30:00Z,26.2168,-96.4998,2.0,301.7342585,16.33157065,-99999.0,'11111222,11111222,99999999' 
TABS,ioos:station:wmo:42045:1,2010-11-03T05:00:00Z,26.2168,-96.4998,2.0,292.6352436,11.74461579,-99999.0,'11111222,11111222,99999999' 
TABS,ioos:station:wmo:42045:1,2010-11-03T05:30:00Z,26.2168,-96.4998,2.0,308.1787566,18.21675053,-99999.0,'11111222,11111222,99999999' 
TABS,ioos:station:wmo:42045:1,2010-11-03T06:00:00Z,26.2168,-96.4998,2.0,340.4256362,16.05806028,-99999.0,'11111222,11111222,99999999' 
TABS,ioos:station:wmo:42045:1,2010-11-03T06:30:00Z,26.2168,-96.4998,2.0,344.4956804,29.81499287,-99999.0,'11111222,11111222,99999999' 
TABS,ioos:station:wmo:42045:1,2010-11-03T07:00:00Z,26.2168,-96.4998,2.0,2.033365264,21.70366329,-99999.0,'11111222,11111222,99999999' 
TABS,ioos:station:wmo:42045:1,2010-11-03T07:30:00Z,26.2168,-96.4998,2.0,7.452541421,35.38892765,-99999.0,'11111222,11111222,99999999' 
TABS,ioos:station:wmo:42045:1,2010-11-03T08:00:00Z,26.2168,-96.4998,2.0,352.2610436,23.83712441,-99999.0,'11111222,11111222,99999999' 
TABS,ioos:station:wmo:42045:1,2010-11-03T08:30:00Z,26.2168,-96.4998,2.0,355.8827171,33.28591444,-99999.0,'11111222,11111222,99999999' 
TABS,ioos:station:wmo:42045:1,2010-11-03T09:00:00Z,26.2168,-96.4998,2.0,350.7134115,33.27615513,-99999.0,'11111222,11111222,99999999' 
TABS,ioos:station:wmo:42045:1,2010-11-03T09:30:00Z,26.2168,-96.4998,2.0,350.5799571,33.60316205,-99999.0,'11111222,11111222,99999999' 
TABS,ioos:station:wmo:42045:1,2010-11-03T10:00:00Z,26.2168,-96.4998,2.0,347.3476835,25.61195424,-99999.0,'11111222,11111222,99999999' 
TABS,ioos:station:wmo:42045:1,2010-11-03T10:30:00Z,26.2168,-96.4998,2.0,349.2019896,30.74439136,-99999.0,'11111222,11111222,99999999' 
TABS,ioos:station:wmo:42045:1,2010-11-03T11:00:00Z,26.2168,-96.4998,2.0,354.3021301,31.92775908,-99999.0,'11111222,11111222,99999999' 
TABS,ioos:station:wmo:42045:1,2010-11-03T11:30:00Z,26.2168,-96.4998,2.0,1.781049202,29.60429867,-99999.0,'11111222,11111222,99999999' 
TABS,ioos:station:wmo:42045:1,2010-11-03T12:00:00Z,26.2168,-96.4998,2.0,350.2888828,34.79866233,-99999.0,'11111222,11111222,99999999' 
TABS,ioos:station:wmo:42045:1,2010-11-03T12:30:00Z,26.2168,-96.4998,2.0,350.7188655,22.38303375,-99999.0,'11111222,11111222,99999999' 
TABS,ioos:station:wmo:42045:1,2010-11-03T13:00:00Z,26.2168,-96.4998,2.0,352.3565851,27.81716916,-99999.0,'11111222,11111222,99999999' 
TABS,ioos:station:wmo:42045:1,2010-11-03T13:30:00Z,26.2168,-96.4998,2.0,336.8918325,16.68906828,-99999.0,'11111222,11111222,99999999' 
TABS,ioos:station:wmo:42045:1,2010-11-03T14:00:00Z,26.2168,-96.4998,2.0,344.1689208,31.0476698,-99999.0,'11111222,11111222,99999999' 
TABS,ioos:station:wmo:42045:1,2010-11-03T14:30:00Z,26.2168,-96.4998,2.0,356.9518426,22.00113179,-99999.0,'11111222,11111222,99999999' 
TABS,ioos:station:wmo:42045:1,2010-11-03T15:00:00Z,26.2168,-96.4998,2.0,358.6533823,19.14528924,-99999.0,'11111222,11111222,99999999' 
TABS,ioos:station:wmo:42045:1,2010-11-03T15:30:00Z,26.2168,-96.4998,2.0,358.4475625,20.66758815,-99999.0,'11111222,11111222,99999999' 
TABS,ioos:station:wmo:42045:1,2010-11-03T16:00:00Z,26.2168,-96.4998,2.0,4.608108233,16.80431492,-99999.0,'11111222,11111222,99999999' 
TABS,ioos:station:wmo:42045:1,2010-11-03T16:30:00Z,26.2168,-96.4998,2.0,45.69524334,18.06790801,-99999.0,'11111222,11111222,99999999' 
TABS,ioos:station:wmo:42045:1,2010-11-03T17:00:00Z,26.2168,-96.4998,2.0,59.46187462,16.39400195,-99999.0,'11111222,11111222,99999999' 
TABS,ioos:station:wmo:42045:1,2010-11-03T17:30:00Z,26.2168,-96.4998,2.0,49.44614989,23.62481958,-99999.0,'11111222,11111222,99999999' 
TABS,ioos:station:wmo:42045:1,2010-11-03T18:00:00Z,26.2168,-96.4998,2.0,57.29142525,19.43122487,-99999.0,'11111222,11111222,99999999' 
TABS,ioos:station:wmo:42045:1,2010-11-03T18:30:00Z,26.2168,-96.4998,2.0,77.60769123,20.03683857,-99999.0,'11111222,11111222,99999999' 
TABS,ioos:station:wmo:42045:1,2010-11-03T19:00:00Z,26.2168,-96.4998,2.0,66.99218266,21.6958821,-99999.0,'11111222,11111222,99999999' 
TABS,ioos:station:wmo:42045:1,2010-11-03T19:30:00Z,26.2168,-96.4998,2.0,95.08470516,9.929073471,-99999.0,'11133222,11111222,99999999' 
TABS,ioos:station:wmo:42045:1,2010-11-03T20:00:00Z,26.2168,-96.4998,2.0,83.05443227,15.0504485,-99999.0,'11111222,11111222,99999999' 
TABS,ioos:station:wmo:42045:1,2010-11-03T20:30:00Z,26.2168,-96.4998,2.0,86.35861297,24.71990696,-99999.0,'11111222,11111222,99999999' 
TABS,ioos:station:wmo:42045:1,2010-11-03T21:00:00Z,26.2168,-96.4998,2.0,98.96220148,28.62953021,-99999.0,'11111222,11111222,99999999' 
TABS,ioos:station:wmo:42045:1,2010-11-03T21:30:00Z,26.2168,-96.4998,2.0,70.76286181,17.39106955,-99999.0,'11111222,11111222,99999999' 
TABS,ioos:station:wmo:42045:1,2010-11-03T22:00:00Z,26.2168,-96.4998,2.0,93.43002042,19.05413341,-99999.0,'11111222,11111222,99999999' 
TABS,ioos:station:wmo:42045:1,2010-11-03T22:30:00Z,26.2168,-96.4998,2.0,103.0647634,22.03025193,-99999.0,'11111222,11111222,99999999' 
TABS,ioos:station:wmo:42045:1,2010-11-03T23:00:00Z,26.2168,-96.4998,2.0,94.05324747,15.13786313,-99999.0,'11111222,11111222,99999999' 
TABS,ioos:station:wmo:42045:1,2010-11-03T23:30:00Z,26.2168,-96.4998,2.0,92.77674091,18.37157043,-99999.0,'11111222,11111222,99999999' 
TABS,ioos:station:wmo:42045:1,2010-11-04T00:00:00Z,26.2168,-96.4998,2.0,74.26374865,19.94763394,-99999.0,'11111222,11111222,99999999' 
TABS,ioos:station:wmo:42045:1,2010-11-04T00:30:00Z,26.2168,-96.4998,2.0,81.62080672,16.26360969,-99999.0,'11111222,11111222,99999999' 
TABS,ioos:station:wmo:42045:1,2010-11-04T01:00:00Z,26.2168,-96.4998,2.0,83.66669966,18.40230964,-99999.0,'11111222,11111222,99999999' 
TABS,ioos:station:wmo:42045:1,2010-11-04T01:30:00Z,26.2168,-96.4998,2.0,109.5953863,14.52099514,-99999.0,'11111222,11111222,99999999' 
TABS,ioos:station:wmo:42045:1,2010-11-04T02:00:00Z,26.2168,-96.4998,2.0,86.33924124,15.66195709,-99999.0,'11111222,11111222,99999999' 
TABS,ioos:station:wmo:42045:1,2010-11-04T02:30:00Z,26.2168,-96.4998,2.0,80.4113359,8.944970654,-99999.0,'11133222,11111222,99999999' 
TABS,ioos:station:wmo:42045:1,2010-11-04T03:00:00Z,26.2168,-96.4998,2.0,92.22395604,11.33854047,-99999.0,'11111222,11111222,99999999' 
TABS,ioos:station:wmo:42045:1,2010-11-04T03:30:00Z,26.2168,-96.4998,2.0,114.6467132,5.61120308,-99999.0,'11133222,11111222,99999999' 
TABS,ioos:station:wmo:42045:1,2010-11-04T04:00:00Z,26.2168,-96.4998,2.0,96.23331067,8.289004765,-99999.0,'11133222,11111222,99999999' 
TABS,ioos:station:wmo:42045:1,2010-11-04T04:30:00Z,26.2168,-96.4998,2.0,163.2764751,4.552548737,-99999.0,'11133222,11111222,99999999' 
TABS,ioos:station:wmo:42045:1,2010-11-04T05:00:00Z,26.2168,-96.4998,2.0,69.93916129,10.69913081,-99999.0,'11111222,11111222,99999999' 
TABS,ioos:station:wmo:42045:1,2010-11-04T05:30:00Z,26.2168,-96.4998,2.0,137.4262249,1.670269439,-99999.0,'11133222,11111222,99999999' 
TABS,ioos:station:wmo:42045:1,2010-11-04T06:00:00Z,26.2168,-96.4998,2.0,2.335747475,6.625503754,-99999.0,'11133222,11111222,99999999' 
TABS,ioos:station:wmo:42045:1,2010-11-04T06:30:00Z,26.2168,-96.4998,2.0,296.6271509,4.150144576,-99999.0,'11133222,11111222,99999999' 
TABS,ioos:station:wmo:42045:1,2010-11-04T07:00:00Z,26.2168,-96.4998,2.0,332.5681824,7.68400937,-99999.0,'11133222,11111222,99999999' 
TABS,ioos:station:wmo:42045:1,2010-11-04T07:30:00Z,26.2168,-96.4998,2.0,310.7949685,15.42818201,-99999.0,'11111222,11111222,99999999' 
TABS,ioos:station:wmo:42045:1,2010-11-04T08:00:00Z,26.2168,-96.4998,2.0,298.5647838,27.81573116,-99999.0,'11111222,11111222,99999999' 
TABS,ioos:station:wmo:42045:1,2010-11-04T08:30:00Z,26.2168,-96.4998,2.0,306.7721746,26.87803936,-99999.0,'11111222,11111222,99999999' 
TABS,ioos:station:wmo:42045:1,2010-11-04T09:00:00Z,26.2168,-96.4998,2.0,324.9044757,26.68078897,-99999.0,'11111222,11111222,99999999' 
TABS,ioos:station:wmo:42045:1,2010-11-04T09:30:00Z,26.2168,-96.4998,2.0,298.1828173,23.29121938,-99999.0,'11111222,11111222,99999999' 
TABS,ioos:station:wmo:42045:1,2010-11-04T10:00:00Z,26.2168,-96.4998,2.0,308.2095368,21.04975059,-99999.0,'11111222,11111222,99999999' 
TABS,ioos:station:wmo:42045:1,2010-11-04T10:30:00Z,26.2168,-96.4998,2.0,314.7440429,22.13266364,-99999.0,'11111222,11111222,99999999' 
TABS,ioos:station:wmo:42045:1,2010-11-04T11:00:00Z,26.2168,-96.4998,2.0,301.826218,21.31454198,-99999.0,'11111222,11111222,99999999' 
TABS,ioos:station:wmo:42045:1,2010-11-04T11:30:00Z,26.2168,-96.4998,2.0,322.1587337,12.02972984,-99999.0,'11111222,11111222,99999999' 
TABS,ioos:station:wmo:42045:1,2010-11-04T12:00:00Z,26.2168,-96.4998,2.0,326.6245181,13.65137722,-99999.0,'11111222,11111222,99999999' 
TABS,ioos:station:wmo:42045:1,2010-11-04T12:30:00Z,26.2168,-96.4998,2.0,301.2725258,16.56700335,-99999.0,'11111222,11111222,99999999' 
TABS,ioos:station:wmo:42045:1,2010-11-04T13:00:00Z,26.2168,-96.4998,2.0,300.3677452,15.9828189,-99999.0,'11111222,11111222,99999999' 
TABS,ioos:station:wmo:42045:1,2010-11-04T13:30:00Z,26.2168,-96.4998,2.0,313.3407656,16.11465172,-99999.0,'11111222,11111222,99999999' 
TABS,ioos:station:wmo:42045:1,2010-11-04T14:00:00Z,26.2168,-96.4998,2.0,317.9344284,20.03030953,-99999.0,'11111222,11111222,99999999' 
TABS,ioos:station:wmo:42045:1,2010-11-04T14:30:00Z,26.2168,-96.4998,2.0,325.1921712,23.73736717,-99999.0,'11111222,11111222,99999999' 
TABS,ioos:station:wmo:42045:1,2010-11-04T15:00:00Z,26.2168,-96.4998,2.0,309.6254189,21.136433,-99999.0,'11111222,11111222,99999999' 
TABS,ioos:station:wmo:42045:1,2010-11-04T15:30:00Z,26.2168,-96.4998,2.0,319.0171836,20.99608059,-99999.0,'11111222,11111222,99999999' 
TABS,ioos:station:wmo:42045:1,2010-11-04T16:00:00Z,26.2168,-96.4998,2.0,318.141962,18.83735119,-99999.0,'11111222,11111222,99999999' 